THORAD DELTA 1 DEB, 8162

Orbit data source: Space-Track

THORAD DELTA 1 DEB, 8162 is space debris in SSO originally from a launch on Fri, 15 Nov 1974 UTC launched from the Air Force Western Test Range (AFWTR). Debris objects in space refer to the collection of defunct objects orbiting the Earth. Examples of debris include non-operational satellites, rocket bodies, and fragments generated from explosions, collisions, or faulty payload assembly.

Loading next visibility...
Identifier
8162, 1974-089AC
Orbit
SSO
Last TLE update
20 hours ago
Origin
Manufacturer
Unknown
Mission
Spacecraft
Bus & Motor
Unknown
Mass
Unknown
Launch date (UTC)
1974-11-15 (51 years ago)
Launch vehicle
Unknown
Launch site
Air Force Western Test Range (AFWTR)
Object type
Payload
Rocket body
Debris
Shape & HBR
Unknown
Radar Cross Section
Small (<0.1 m²)

Expand to show TLE details & history

TLE from 20 hours ago
0 THORAD DELTA 1 DEB
1 08162U 74089AC  25141.18375980  .00000832  00000-0  55509-2 0  9998
2 08162 100.7796  40.9565 0142028 264.4902 252.3470 12.49641364270846
Epoch: 2025-05-21T04:24Z
TLE epoch observation values (Epoch: 2025-05-21T04:24:36.846Z)
Latitude
24.2652°
Longitude
-79.36894°
Altitude
1,503.883 km
Speed
7.099 km/s
True Right ascension
15h 03m 25s
True Declination
24° 08' 56"
Sunlit
Object was in full shadow at epoch
Visualization orbit readout
Latitude
32.10511°
Longitude
89.67417°
Altitude
1,540.403 km
Speed
7.067 km/s
Apparent Right ascension
00h 29m 16s
Apparent Declination
0° 41' 43"
Sunlit
Object is in daylight
Visualization observer readout
Local Sidereal Time
09:51:45
Azimuth
308.535° NW
Elevation
-35.805°
Doppler factor
1
Orbital elements
Apogee altitude
1,574.86 km
Perigee altitude
1,352.114 km
Semi-major axis
7,841.624 km
Eccentricity
0.0142
Inclination
100.7796°
RAAN
40.9565°
Arg. of periapsis
264.4902°
True anomaly
Unknown
Mean anomaly
252.347°
Eccentric anomaly
Unknown
Mean motion
3.12561 °/min
Orbital period
115.18 mins
BSTAR
0.0055509
Loading maneuver chart data...
Loading SW <> Apogee altitude chart data...
Loading historical data...
Loading historical data...
Loading historical data...
Loading historical data...
Loading historical data...
Loading historical data...
Loading historical data...

THORAD DELTA 1 DEB Visibility forecast

Observer location: undefined°, undefined°

Span
Click to sort rows by Start time (UTC) header in descending order
Start Az.
Max El. time (UTC)
Max El. Az.
Max El.
End time (UTC)
End Az.
15 mins2025-05-22 05:11:34.945Z33.108° NE2025-05-22 05:18:34.945Z91.489° ESE31.727°2025-05-22 05:26:34.945Z162.385° S
14 mins2025-05-22 07:05:34.945Z2.448° NNE2025-05-22 07:12:34.945Z289.445° WNW37.387°2025-05-22 07:19:34.945Z226.11° WSW
14 mins2025-05-22 16:12:34.945Z127.739° SE2025-05-22 16:18:34.945Z66.497° ENE36.517°2025-05-22 16:26:34.945Z355.348° N
14 mins2025-05-22 18:05:34.945Z200.329° SSW2025-05-22 18:11:34.945Z256.492° W33.238°2025-05-22 18:19:34.945Z328.474° NNW
|